Time,TemperatureF,DewpointF,PressureIn,WindDirection,WindDirectionDegrees,WindSpeedMPH,WindSpeedGustMPH,Humidity,HourlyPrecipIn,Conditions,Clouds,dailyrainin,SoftwareType,DateUTC
2013-10-12 00:07:00,60.7,60.0,29.85,North,354,0.0,-999.0,96,-99.99,,,0.00,weatherlink.com 1.10,2013-10-12 04:07:00,
2013-10-12 00:22:00,60.9,60.0,29.85,North,353,0.0,-999.0,96,-99.99,,,0.00,weatherlink.com 1.10,2013-10-12 04:22:00,
2013-10-12 00:37:00,61.0,60.0,29.84,North,7,0.0,-999.0,96,-99.99,,,0.00,weatherlink.com 1.10,2013-10-12 04:37:00,
2013-10-12 00:52:00,61.0,60.0,29.84,North,8,0.0,-999.0,96,-99.99,,,0.00,weatherlink.com 1.10,2013-10-12 04:52:00,
2013-10-12 01:07:00,61.2,60.0,29.84,North,8,0.0,-999.0,96,-99.99,,,0.00,weatherlink.com 1.10,2013-10-12 05:07:00,
2013-10-12 01:22:00,61.2,60.0,29.84,North,8,0.0,-999.0,96,-99.99,,,0.00,weatherlink.com 1.10,2013-10-12 05:22:00,
2013-10-12 01:37:00,61.3,60.0,29.84,North,8,0.0,-999.0,95,-99.99,,,0.00,weatherlink.com 1.10,2013-10-12 05:37:00,
2013-10-12 01:52:00,61.3,60.0,29.84,North,8,0.0,-999.0,95,-99.99,,,0.00,weatherlink.com 1.10,2013-10-12 05:52:00,
2013-10-12 02:07:00,61.3,60.0,29.84,North,8,0.0,-999.0,95,-99.99,,,0.00,weatherlink.com 1.10,2013-10-12 06:07:00,
2013-10-12 02:22:00,61.3,60.0,29.85,North,10,0.0,-999.0,95,-99.99,,,0.00,weatherlink.com 1.10,2013-10-12 06:22:00,
2013-10-12 02:37:00,61.3,60.0,29.84,North,10,0.0,-999.0,95,-99.99,,,0.00,weatherlink.com 1.10,2013-10-12 06:37:00,
2013-10-12 02:53:00,61.2,60.0,29.84,North,10,0.0,-999.0,95,-99.99,,,0.00,weatherlink.com 1.10,2013-10-12 06:53:00,
2013-10-12 03:08:00,61.2,60.0,29.84,North,8,0.0,-999.0,95,-99.99,,,0.00,weatherlink.com 1.10,2013-10-12 07:08:00,
2013-10-12 03:23:00,61.2,60.0,29.84,North,10,0.0,-999.0,95,-99.99,,,0.00,weatherlink.com 1.10,2013-10-12 07:23:00,
2013-10-12 03:38:00,61.2,60.0,29.84,North,8,0.0,-999.0,95,-99.99,,,0.00,weatherlink.com 1.10,2013-10-12 07:38:00,
2013-10-12 03:53:00,61.2,60.0,29.84,North,8,0.0,-999.0,95,-99.99,,,0.00,weatherlink.com 1.10,2013-10-12 07:53:00,
2013-10-12 04:08:00,61.2,60.0,29.84,NNE,16,0.0,-999.0,95,-99.99,,,0.00,weatherlink.com 1.10,2013-10-12 08:08:00,
2013-10-12 04:23:00,61.2,60.0,29.84,NNE,16,0.0,-999.0,95,-99.99,,,0.00,weatherlink.com 1.10,2013-10-12 08:23:00,
2013-10-12 04:38:00,61.2,60.0,29.84,NNE,16,0.0,-999.0,96,-99.99,,,0.00,weatherlink.com 1.10,2013-10-12 08:38:00,
2013-10-12 04:53:00,61.0,60.0,29.84,NNE,16,0.0,-999.0,96,-99.99,,,0.00,weatherlink.com 1.10,2013-10-12 08:53:00,
2013-10-12 05:08:00,61.2,60.0,29.84,ENE,61,0.0,-999.0,96,-99.99,,,0.00,weatherlink.com 1.10,2013-10-12 09:08:00,
2013-10-12 05:23:00,61.2,60.0,29.85,ESE,112,0.0,-999.0,96,-99.99,,,0.00,weatherlink.com 1.10,2013-10-12 09:23:00,
2013-10-12 05:38:00,61.2,60.0,29.86,ESE,113,0.0,-999.0,96,-99.99,,,0.00,weatherlink.com 1.10,2013-10-12 09:38:00,
2013-10-12 05:53:00,61.0,60.0,29.86,ESE,112,0.0,-999.0,96,-99.99,,,0.00,weatherlink.com 1.10,2013-10-12 09:53:00,
2013-10-12 06:09:00,61.0,60.0,29.86,ESE,113,0.0,-999.0,96,-99.99,,,0.00,weatherlink.com 1.10,2013-10-12 10:09:00,
2013-10-12 06:24:00,61.0,60.0,29.86,ESE,113,0.0,-999.0,96,-99.99,,,0.00,weatherlink.com 1.10,2013-10-12 10:24:00,
2013-10-12 06:39:00,61.0,60.0,29.86,ESE,113,0.0,-999.0,96,-99.99,,,0.00,weatherlink.com 1.10,2013-10-12 10:39:00,
2013-10-12 06:54:00,61.0,60.0,29.87,ESE,113,0.0,-999.0,96,-99.99,,,0.00,weatherlink.com 1.10,2013-10-12 10:54:00,
2013-10-12 07:09:00,61.2,60.0,29.87,ESE,113,0.0,-999.0,96,-99.99,,,0.00,weatherlink.com 1.10,2013-10-12 11:09:00,
2013-10-12 07:24:00,61.2,60.0,29.88,ESE,113,0.0,-999.0,96,-99.99,,,0.00,weatherlink.com 1.10,2013-10-12 11:24:00,
2013-10-12 07:39:00,61.2,60.0,29.88,ESE,113,0.0,-999.0,96,-99.99,,,0.00,weatherlink.com 1.10,2013-10-12 11:39:00,
2013-10-12 07:54:00,61.3,60.0,29.88,ESE,113,0.0,-999.0,96,-99.99,,,0.00,weatherlink.com 1.10,2013-10-12 11:54:00,
2013-10-12 08:09:00,61.3,60.0,29.88,ESE,113,0.0,-999.0,96,-99.99,,,0.00,weatherlink.com 1.10,2013-10-12 12:09:00,
2013-10-12 08:24:00,61.5,60.0,29.89,SSE,165,0.0,-999.0,96,-99.99,,,0.00,weatherlink.com 1.10,2013-10-12 12:24:00,
2013-10-12 08:39:00,61.6,61.0,29.89,SSE,165,0.0,-999.0,96,-99.99,,,0.00,weatherlink.com 1.10,2013-10-12 12:39:00,
2013-10-12 08:54:00,62.0,61.0,29.89,SSE,165,0.0,-999.0,96,-99.99,,,0.00,weatherlink.com 1.10,2013-10-12 12:54:00,
2013-10-12 09:09:00,62.4,61.0,29.89,North,0,0.0,-999.0,96,-99.99,,,0.00,weatherlink.com 1.10,2013-10-12 13:09:00,
2013-10-12 09:24:00,62.6,61.0,29.90,North,0,0.0,-999.0,95,-99.99,,,0.00,weatherlink.com 1.10,2013-10-12 13:24:00,
2013-10-12 09:39:00,62.9,61.0,29.90,SSW,193,0.0,-999.0,94,-99.99,,,0.00,weatherlink.com 1.10,2013-10-12 13:39:00,
2013-10-12 09:54:00,63.1,61.0,29.90,SSW,192,0.0,-999.0,94,-99.99,,,0.00,weatherlink.com 1.10,2013-10-12 13:54:00,
2013-10-12 10:09:00,63.4,61.0,29.90,South,191,0.0,-999.0,93,-99.99,,,0.00,weatherlink.com 1.10,2013-10-12 14:09:00,
2013-10-12 10:25:00,63.5,62.0,29.91,SSE,157,0.0,-999.0,93,-99.99,,,0.00,weatherlink.com 1.10,2013-10-12 14:25:00,
2013-10-12 10:40:00,63.7,62.0,29.91,SSE,157,0.0,-999.0,93,-99.99,,,0.00,weatherlink.com 1.10,2013-10-12 14:40:00,
2013-10-12 10:55:00,63.9,62.0,29.91,NNE,14,0.0,-999.0,94,-99.99,,,0.00,weatherlink.com 1.10,2013-10-12 14:55:00,
2013-10-12 11:10:00,64.0,62.0,29.91,NNE,21,0.0,-999.0,94,-99.99,,,0.00,weatherlink.com 1.10,2013-10-12 15:10:00,
2013-10-12 11:25:00,64.5,63.0,29.91,NNE,21,0.0,-999.0,94,-99.99,,,0.00,weatherlink.com 1.10,2013-10-12 15:25:00,
2013-10-12 11:40:00,64.7,63.0,29.91,NNE,21,0.0,-999.0,94,-99.99,,,0.00,weatherlink.com 1.10,2013-10-12 15:40:00,
2013-10-12 11:55:00,64.5,63.0,29.91,NNE,20,0.0,-999.0,94,-99.99,,,0.00,weatherlink.com 1.10,2013-10-12 15:55:00,
2013-10-12 12:10:00,64.5,63.0,29.91,NNE,21,0.0,-999.0,94,-99.99,,,0.00,weatherlink.com 1.10,2013-10-12 16:10:00,
2013-10-12 12:25:00,65.2,63.0,29.91,NNE,20,0.0,-999.0,92,-99.99,,,0.00,weatherlink.com 1.10,2013-10-12 16:25:00,
2013-10-12 12:40:00,65.2,63.0,29.91,NNE,24,0.0,-999.0,92,-99.99,,,0.00,weatherlink.com 1.10,2013-10-12 16:40:00,
2013-10-12 12:55:00,65.2,63.0,29.91,North,-999,-999.0,-999.0,92,-99.99,,,0.00,weatherlink.com 1.10,2013-10-12 16:55:00,
2013-10-12 13:10:00,66.1,64.0,29.91,ESE,103,0.0,-999.0,92,-99.99,,,0.00,weatherlink.com 1.10,2013-10-12 17:10:00,
2013-10-12 13:25:00,66.3,63.0,29.90,ESE,103,0.0,-999.0,90,-99.99,,,0.00,weatherlink.com 1.10,2013-10-12 17:25:00,
2013-10-12 13:40:00,66.6,64.0,29.89,ESE,103,0.0,-999.0,90,-99.99,,,0.00,weatherlink.com 1.10,2013-10-12 17:40:00,
2013-10-12 13:55:00,66.8,64.0,29.89,ESE,103,0.0,-999.0,89,-99.99,,,0.00,weatherlink.com 1.10,2013-10-12 17:55:00,
2013-10-12 14:10:00,67.4,64.0,29.88,NNW,346,0.0,-999.0,88,-99.99,,,0.00,weatherlink.com 1.10,2013-10-12 18:10:00,
2013-10-12 14:25:00,67.8,64.0,29.88,NNE,13,0.0,-999.0,87,-99.99,,,0.00,weatherlink.com 1.10,2013-10-12 18:25:00,
2013-10-12 14:40:00,67.6,64.0,29.88,NNE,13,0.0,-999.0,88,-99.99,,,0.00,weatherlink.com 1.10,2013-10-12 18:40:00,
2013-10-12 14:55:00,67.8,65.0,29.88,NNE,13,0.0,-999.0,89,-99.99,,,0.00,weatherlink.com 1.10,2013-10-12 18:55:00,
2013-10-12 15:10:00,68.1,65.0,29.88,NNE,13,0.0,-999.0,88,-99.99,,,0.00,weatherlink.com 1.10,2013-10-12 19:10:00,
2013-10-12 15:25:00,67.9,65.0,29.89,NNE,13,0.0,-999.0,89,-99.99,,,0.00,weatherlink.com 1.10,2013-10-12 19:25:00,
2013-10-12 15:40:00,68.1,65.0,29.89,NNE,14,0.0,-999.0,89,-99.99,,,0.00,weatherlink.com 1.10,2013-10-12 19:40:00,
2013-10-12 15:55:00,68.3,65.0,29.89,NNE,14,0.0,-999.0,89,-99.99,,,0.00,weatherlink.com 1.10,2013-10-12 19:55:00,
2013-10-12 16:10:00,68.3,65.0,29.90,NNE,14,0.0,-999.0,88,-99.99,,,0.00,weatherlink.com 1.10,2013-10-12 20:10:00,
2013-10-12 16:25:00,68.3,65.0,29.90,NNE,14,0.0,-999.0,89,-99.99,,,0.00,weatherlink.com 1.10,2013-10-12 20:25:00,
2013-10-12 16:40:00,67.6,65.0,29.90,NW,305,0.0,-999.0,90,-99.99,,,0.00,weatherlink.com 1.10,2013-10-12 20:40:00,
2013-10-12 16:55:00,66.8,65.0,29.90,NW,305,0.0,-999.0,92,-99.99,,,0.00,weatherlink.com 1.10,2013-10-12 20:55:00,
2013-10-12 17:10:00,66.6,65.0,29.90,West,281,0.0,-999.0,93,-99.99,,,0.00,weatherlink.com 1.10,2013-10-12 21:10:00,
2013-10-12 17:25:00,66.6,65.0,29.91,West,281,0.0,-999.0,94,-99.99,,,0.00,weatherlink.com 1.10,2013-10-12 21:25:00,
2013-10-12 17:40:00,66.8,-99.9,29.91,North,0,0.0,-999.0,-999,-99.99,,,0.00,weatherlink.com 1.10,2013-10-12 21:40:00,
2013-10-12 17:55:00,66.8,-99.9,29.91,West,281,0.0,-999.0,-999,-99.99,,,0.00,weatherlink.com 1.10,2013-10-12 21:55:00,
2013-10-12 18:10:00,66.3,64.0,29.92,West,281,0.0,-999.0,93,-99.99,,,0.00,weatherlink.com 1.10,2013-10-12 22:10:00,
2013-10-12 18:25:00,66.1,64.0,29.92,West,281,0.0,-999.0,94,-99.99,,,0.00,weatherlink.com 1.10,2013-10-12 22:25:00,
2013-10-12 18:40:00,66.0,64.0,29.92,West,281,0.0,-999.0,94,-99.99,,,0.00,weatherlink.com 1.10,2013-10-12 22:40:00,
2013-10-12 18:55:00,65.8,64.0,29.93,West,275,0.0,-999.0,94,-99.99,,,0.00,weatherlink.com 1.10,2013-10-12 22:55:00,
2013-10-12 19:10:00,65.8,64.0,29.93,North,-999,-999.0,-999.0,94,-99.99,,,0.00,weatherlink.com 1.10,2013-10-12 23:10:00,
2013-10-12 19:25:00,65.6,64.0,29.93,West,275,0.0,-999.0,95,-99.99,,,0.00,weatherlink.com 1.10,2013-10-12 23:25:00,
2013-10-12 19:40:00,65.6,64.0,29.94,West,275,0.0,-999.0,95,-99.99,,,0.00,weatherlink.com 1.10,2013-10-12 23:40:00,
2013-10-12 19:55:00,65.5,64.0,29.94,West,275,0.0,-999.0,95,-99.99,,,0.00,weatherlink.com 1.10,2013-10-12 23:55:00,
2013-10-12 20:11:00,65.5,64.0,29.94,WNW,288,0.0,-999.0,95,-99.99,,,0.00,weatherlink.com 1.10,2013-10-13 00:11:00,
2013-10-12 20:26:00,65.5,64.0,29.94,WNW,289,0.0,-999.0,95,-99.99,,,0.00,weatherlink.com 1.10,2013-10-13 00:26:00,
2013-10-12 20:41:00,65.5,64.0,29.94,North,-999,-999.0,-999.0,95,-99.99,,,0.00,weatherlink.com 1.10,2013-10-13 00:41:00,
2013-10-12 20:56:00,65.0,64.0,29.95,WNW,289,0.0,-999.0,96,-99.99,,,0.00,weatherlink.com 1.10,2013-10-13 00:56:00,
2013-10-12 21:11:00,64.8,64.0,29.95,NW,304,0.0,-999.0,96,-99.99,,,0.00,weatherlink.com 1.10,2013-10-13 01:11:00,
2013-10-12 21:26:00,64.7,64.0,29.95,North,0,1.0,-999.0,96,-99.99,,,0.01,weatherlink.com 1.10,2013-10-13 01:26:00,
2013-10-12 21:41:00,64.3,63.0,29.95,SSW,209,0.0,-999.0,96,-99.99,,,0.01,weatherlink.com 1.10,2013-10-13 01:41:00,
2013-10-12 21:56:00,64.2,63.0,29.96,SSE,160,0.0,-999.0,95,-99.99,,,0.01,weatherlink.com 1.10,2013-10-13 01:56:00,
2013-10-12 22:11:00,64.0,63.0,29.96,North,10,0.0,-999.0,95,-99.99,,,0.01,weatherlink.com 1.10,2013-10-13 02:11:00,
2013-10-12 22:26:00,64.0,63.0,29.96,North,10,0.0,-999.0,95,-99.99,,,0.01,weatherlink.com 1.10,2013-10-13 02:26:00,
2013-10-12 22:41:00,64.0,63.0,29.96,NNW,344,0.0,-999.0,95,-99.99,,,0.01,weatherlink.com 1.10,2013-10-13 02:41:00,
2013-10-12 22:56:00,63.7,62.0,29.96,NW,320,0.0,-999.0,95,-99.99,,,0.01,weatherlink.com 1.10,2013-10-13 02:56:00,
2013-10-12 23:11:00,63.7,62.0,29.96,North,359,0.0,-999.0,95,-99.99,,,0.01,weatherlink.com 1.10,2013-10-13 03:11:00,
2013-10-12 23:26:00,63.5,62.0,29.96,North,357,0.0,-999.0,96,-99.99,,,0.01,weatherlink.com 1.10,2013-10-13 03:26:00,
2013-10-12 23:41:00,63.5,62.0,29.96,North,357,0.0,-999.0,96,-99.99,,,0.01,weatherlink.com 1.10,2013-10-13 03:41:00,
2013-10-12 23:56:00,63.5,62.0,29.96,SSW,196,0.0,-999.0,96,-99.99,,,0.01,weatherlink.com 1.10,2013-10-13 03:56:00,